Year,Month,Day,Hour,Minute,Value (Times are PST for temperature in C)
2011,08,21,00,00,16.80
2011,08,21,00,01,16.80
2011,08,21,00,02,16.80
2011,08,21,00,03,16.80
2011,08,21,00,04,16.80
2011,08,21,00,05,16.80
2011,08,21,00,06,16.80
2011,08,21,00,07,16.80
2011,08,21,00,08,16.70
2011,08,21,00,09,16.70
2011,08,21,00,10,16.70
2011,08,21,00,11,16.70
2011,08,21,00,12,16.70
2011,08,21,00,13,16.70
2011,08,21,00,14,16.70
2011,08,21,00,15,16.70
2011,08,21,00,16,16.70
2011,08,21,00,17,16.70
2011,08,21,00,18,16.70
2011,08,21,00,19,16.70
2011,08,21,00,20,16.70
2011,08,21,00,21,16.70
2011,08,21,00,22,16.70
2011,08,21,00,23,16.70
2011,08,21,00,24,16.70
2011,08,21,00,25,16.70
2011,08,21,00,26,16.70
2011,08,21,00,27,16.70
2011,08,21,00,28,16.70
2011,08,21,00,29,16.70
2011,08,21,00,30,16.70
2011,08,21,00,31,16.70
2011,08,21,00,32,16.70
2011,08,21,00,33,16.70
2011,08,21,00,34,16.70
2011,08,21,00,35,16.70
2011,08,21,00,36,16.80
2011,08,21,00,37,16.80
2011,08,21,00,38,16.80
2011,08,21,00,39,16.80
2011,08,21,00,40,16.80
2011,08,21,00,41,16.80
2011,08,21,00,42,16.80
2011,08,21,00,43,16.80
2011,08,21,00,44,16.80
2011,08,21,00,45,16.80
2011,08,21,00,46,16.80
2011,08,21,00,47,16.80
2011,08,21,00,48,16.80
2011,08,21,00,49,16.80
2011,08,21,00,50,16.80
2011,08,21,00,51,16.90
2011,08,21,00,52,16.90
2011,08,21,00,53,16.90
2011,08,21,00,54,16.90
2011,08,21,00,55,16.90
2011,08,21,00,56,17.00
2011,08,21,00,57,17.00
2011,08,21,00,58,17.00
2011,08,21,00,59,17.00
2011,08,21,01,00,17.00
2011,08,21,01,01,17.00
2011,08,21,01,02,17.00
2011,08,21,01,03,17.00
2011,08,21,01,04,17.00
2011,08,21,01,05,17.00
2011,08,21,01,06,17.00
2011,08,21,01,07,17.00
2011,08,21,01,08,17.00
2011,08,21,01,09,17.00
2011,08,21,01,10,17.00
2011,08,21,01,11,17.00
2011,08,21,01,12,17.00
2011,08,21,01,13,17.00
2011,08,21,01,14,17.00
2011,08,21,01,15,17.00
2011,08,21,01,16,17.00
2011,08,21,01,17,17.00
2011,08,21,01,18,17.00
2011,08,21,01,19,16.90
2011,08,21,01,20,16.90
2011,08,21,01,21,16.90
2011,08,21,01,22,16.90
2011,08,21,01,23,16.90
2011,08,21,01,24,16.90
2011,08,21,01,25,16.90
2011,08,21,01,26,16.90
2011,08,21,01,27,16.90
2011,08,21,01,28,16.90
2011,08,21,01,29,16.90
2011,08,21,01,30,16.90
2011,08,21,01,31,16.90
2011,08,21,01,32,16.90
2011,08,21,01,33,16.90
2011,08,21,01,34,16.90
2011,08,21,01,35,16.90
2011,08,21,01,36,16.90
2011,08,21,01,37,16.90
2011,08,21,01,38,16.90
2011,08,21,01,39,16.80
2011,08,21,01,40,16.80
2011,08,21,01,41,16.80
2011,08,21,01,42,16.80
2011,08,21,01,43,16.80
2011,08,21,01,44,16.80
2011,08,21,01,45,16.80
2011,08,21,01,46,16.80
2011,08,21,01,47,16.80
2011,08,21,01,48,16.80
2011,08,21,01,49,16.80
2011,08,21,01,50,16.80
2011,08,21,01,51,16.80
2011,08,21,01,52,16.80
2011,08,21,01,53,16.80
2011,08,21,01,54,16.80
2011,08,21,01,55,16.80
2011,08,21,01,56,16.80
2011,08,21,01,57,16.80
2011,08,21,01,58,16.80
2011,08,21,01,59,16.90
2011,08,21,02,00,16.90
2011,08,21,02,01,16.90
2011,08,21,02,02,16.90
2011,08,21,02,03,16.90
2011,08,21,02,04,16.90
2011,08,21,02,05,16.90
2011,08,21,02,06,16.90
2011,08,21,02,07,16.90
2011,08,21,02,08,16.90
2011,08,21,02,09,16.90
2011,08,21,02,10,16.90
2011,08,21,02,11,17.00
2011,08,21,02,12,17.00
2011,08,21,02,13,17.00
2011,08,21,02,14,17.00
2011,08,21,02,15,17.00
2011,08,21,02,16,17.00
2011,08,21,02,17,17.00
2011,08,21,02,18,17.00
2011,08,21,02,19,17.00
2011,08,21,02,20,17.00
2011,08,21,02,21,17.00
2011,08,21,02,22,17.00
2011,08,21,02,23,17.00
2011,08,21,02,24,17.00
2011,08,21,02,25,17.00
2011,08,21,02,26,17.00
2011,08,21,02,27,17.10
2011,08,21,02,28,17.10
2011,08,21,02,29,17.10
2011,08,21,02,30,17.10
2011,08,21,02,31,17.10
2011,08,21,02,32,17.10
2011,08,21,02,33,17.10
2011,08,21,02,34,17.10
2011,08,21,02,35,17.10
2011,08,21,02,36,17.10
2011,08,21,02,37,17.10
2011,08,21,02,38,17.10
2011,08,21,02,39,17.00
2011,08,21,02,40,17.00
2011,08,21,02,41,17.00
2011,08,21,02,42,17.00
2011,08,21,02,43,17.00
2011,08,21,02,44,17.00
2011,08,21,02,45,17.00
2011,08,21,02,46,17.00
2011,08,21,02,47,17.10
2011,08,21,02,48,17.10
2011,08,21,02,49,17.00
2011,08,21,02,50,17.10
2011,08,21,02,51,17.10
2011,08,21,02,52,17.10
2011,08,21,02,53,17.10
2011,08,21,02,54,17.10
2011,08,21,02,55,17.00
2011,08,21,02,56,17.00
2011,08,21,02,57,17.00
2011,08,21,02,58,17.00
2011,08,21,02,59,17.00
2011,08,21,03,00,16.90
2011,08,21,03,01,16.90
2011,08,21,03,02,16.90
2011,08,21,03,03,16.90
2011,08,21,03,04,16.80
2011,08,21,03,05,16.80
2011,08,21,03,06,16.80
2011,08,21,03,07,16.70
2011,08,21,03,08,16.70
2011,08,21,03,09,16.70
2011,08,21,03,10,16.60
2011,08,21,03,11,16.60
2011,08,21,03,12,16.60
2011,08,21,03,13,16.50
2011,08,21,03,14,16.50
2011,08,21,03,15,16.50
2011,08,21,03,16,16.40
2011,08,21,03,17,16.40
2011,08,21,03,18,16.40
2011,08,21,03,19,16.40
2011,08,21,03,20,16.40
2011,08,21,03,21,16.40
2011,08,21,03,22,16.40
2011,08,21,03,23,16.40
2011,08,21,03,24,16.40
2011,08,21,03,25,16.40
2011,08,21,03,26,16.40
2011,08,21,03,27,16.40
2011,08,21,03,28,16.40
2011,08,21,03,29,16.40
2011,08,21,03,30,16.40
2011,08,21,03,31,16.40
2011,08,21,03,32,16.40
2011,08,21,03,33,16.40
2011,08,21,03,34,16.30
2011,08,21,03,35,16.30
2011,08,21,03,36,16.30
2011,08,21,03,37,16.30
2011,08,21,03,38,16.30
2011,08,21,03,39,16.20
2011,08,21,03,40,16.20
2011,08,21,03,41,16.20
2011,08,21,03,42,16.10
2011,08,21,03,43,16.00
2011,08,21,03,44,16.00
2011,08,21,03,45,15.90
2011,08,21,03,46,15.90
2011,08,21,03,47,15.80
2011,08,21,03,48,15.80
2011,08,21,03,49,15.70
2011,08,21,03,50,15.70
2011,08,21,03,51,15.70
2011,08,21,03,52,15.60
2011,08,21,03,53,15.60
2011,08,21,03,54,15.50
2011,08,21,03,55,15.50
2011,08,21,03,56,15.40
2011,08,21,03,57,15.40
2011,08,21,03,58,15.40
2011,08,21,03,59,15.40
2011,08,21,04,00,15.30
2011,08,21,04,01,15.30
2011,08,21,04,02,15.30
2011,08,21,04,03,15.30
2011,08,21,04,04,15.30
2011,08,21,04,05,15.30
2011,08,21,04,06,15.30
2011,08,21,04,07,15.30
2011,08,21,04,08,15.30
2011,08,21,04,09,15.30
2011,08,21,04,10,15.30
2011,08,21,04,11,15.30
2011,08,21,04,12,15.30
2011,08,21,04,13,15.20
2011,08,21,04,14,15.20
2011,08,21,04,15,15.20
2011,08,21,04,16,15.20
2011,08,21,04,17,15.20
2011,08,21,04,18,15.20
2011,08,21,04,19,15.20
2011,08,21,04,20,15.20
2011,08,21,04,21,15.20
2011,08,21,04,22,15.20
2011,08,21,04,23,15.20
2011,08,21,04,24,15.20
2011,08,21,04,25,15.20
2011,08,21,04,26,15.20
2011,08,21,04,27,15.10
2011,08,21,04,28,15.10
2011,08,21,04,29,15.10
2011,08,21,04,30,15.10
2011,08,21,04,31,15.10
2011,08,21,04,32,15.10
2011,08,21,04,33,15.00
2011,08,21,04,34,15.00
2011,08,21,04,35,15.00
2011,08,21,04,36,15.00
2011,08,21,04,37,15.00
2011,08,21,04,38,14.90
2011,08,21,04,39,14.90
2011,08,21,04,40,14.90
2011,08,21,04,41,14.90
2011,08,21,04,42,14.90
2011,08,21,04,43,14.90
2011,08,21,04,44,14.90
2011,08,21,04,45,14.80
2011,08,21,04,46,14.90
2011,08,21,04,47,14.80
2011,08,21,04,48,14.80
2011,08,21,04,49,14.80
2011,08,21,04,50,14.80
2011,08,21,04,51,14.80
2011,08,21,04,52,14.80
2011,08,21,04,53,14.80
2011,08,21,04,54,14.80
2011,08,21,04,55,14.90
2011,08,21,04,56,14.90
2011,08,21,04,57,15.00
2011,08,21,04,58,15.00
2011,08,21,04,59,15.00
2011,08,21,05,00,15.10
2011,08,21,05,01,15.10
2011,08,21,05,02,15.10
2011,08,21,05,03,15.10
2011,08,21,05,04,15.10
2011,08,21,05,05,15.10
2011,08,21,05,06,15.10
2011,08,21,05,07,15.10
2011,08,21,05,08,15.20
2011,08,21,05,09,15.20
2011,08,21,05,10,15.20
2011,08,21,05,11,15.20
2011,08,21,05,12,15.20
2011,08,21,05,13,15.20
2011,08,21,05,14,15.20
2011,08,21,05,15,15.20
2011,08,21,05,16,15.20
2011,08,21,05,17,15.20
2011,08,21,05,18,15.20
2011,08,21,05,19,15.20
2011,08,21,05,20,15.30
2011,08,21,05,21,15.30
2011,08,21,05,22,15.30
2011,08,21,05,23,15.30
2011,08,21,05,24,15.40
2011,08,21,05,25,15.40
2011,08,21,05,26,15.40
2011,08,21,05,27,15.50
2011,08,21,05,28,15.50
2011,08,21,05,29,15.50
2011,08,21,05,30,15.60
2011,08,21,05,31,15.60
2011,08,21,05,32,15.60
2011,08,21,05,33,15.70
2011,08,21,05,34,15.70
2011,08,21,05,35,15.70
2011,08,21,05,36,15.80
2011,08,21,05,37,15.80
2011,08,21,05,38,15.90
2011,08,21,05,39,15.90
2011,08,21,05,40,15.90
2011,08,21,05,41,16.00
2011,08,21,05,42,16.00
2011,08,21,05,43,16.10
2011,08,21,05,44,16.10
2011,08,21,05,45,16.10
2011,08,21,05,46,16.20
2011,08,21,05,47,16.20
2011,08,21,05,48,16.20
2011,08,21,05,49,16.30
2011,08,21,05,50,16.30
2011,08,21,05,51,16.40
2011,08,21,05,52,16.40
2011,08,21,05,53,16.40
2011,08,21,05,54,16.40
2011,08,21,05,55,16.40
2011,08,21,05,56,16.50
2011,08,21,05,57,16.50
2011,08,21,05,58,16.50
2011,08,21,05,59,16.50
2011,08,21,06,00,16.60
2011,08,21,06,01,16.60
2011,08,21,06,02,16.60
2011,08,21,06,03,16.60
2011,08,21,06,04,16.50
2011,08,21,06,05,16.50
2011,08,21,06,06,16.40
2011,08,21,06,07,16.40
2011,08,21,06,08,16.30
2011,08,21,06,09,16.30
2011,08,21,06,10,16.20
2011,08,21,06,11,16.20
2011,08,21,06,12,16.10
2011,08,21,06,13,16.10
2011,08,21,06,14,16.00
2011,08,21,06,15,16.00
2011,08,21,06,16,15.90
2011,08,21,06,17,15.90
2011,08,21,06,18,15.80
2011,08,21,06,19,15.80
2011,08,21,06,20,15.80
2011,08,21,06,21,15.80
2011,08,21,06,22,15.80
2011,08,21,06,23,15.80
2011,08,21,06,24,15.80
2011,08,21,06,25,15.80
2011,08,21,06,26,15.80
2011,08,21,06,27,15.70
2011,08,21,06,28,15.70
2011,08,21,06,29,15.70
2011,08,21,06,30,15.70
2011,08,21,06,31,15.60
2011,08,21,06,32,15.60
2011,08,21,06,33,15.60
2011,08,21,06,34,15.60
2011,08,21,06,35,15.60
2011,08,21,06,36,15.60
2011,08,21,06,37,15.60
2011,08,21,06,38,15.60
2011,08,21,06,39,15.60
2011,08,21,06,40,15.60
2011,08,21,06,41,15.60
2011,08,21,06,42,15.60
2011,08,21,06,43,15.60
2011,08,21,06,44,15.70
2011,08,21,06,45,15.70
2011,08,21,06,46,15.80
2011,08,21,06,47,15.80
2011,08,21,06,48,15.90
2011,08,21,06,49,15.90
2011,08,21,06,50,16.00
2011,08,21,06,51,16.00
2011,08,21,06,52,16.00
2011,08,21,06,53,16.10
2011,08,21,06,54,16.10
2011,08,21,06,55,16.10
2011,08,21,06,56,16.10
2011,08,21,06,57,16.10
2011,08,21,06,58,16.10
2011,08,21,06,59,16.10
2011,08,21,07,00,16.10
2011,08,21,07,01,16.10
2011,08,21,07,02,16.10
2011,08,21,07,03,16.10
2011,08,21,07,04,16.10
2011,08,21,07,05,16.10
2011,08,21,07,06,16.10
2011,08,21,07,07,16.10
2011,08,21,07,08,16.10
2011,08,21,07,09,16.10
2011,08,21,07,10,16.10
2011,08,21,07,11,16.10
2011,08,21,07,12,16.20
2011,08,21,07,13,16.20
2011,08,21,07,14,16.20
2011,08,21,07,15,16.20
2011,08,21,07,16,16.20
2011,08,21,07,17,16.20
2011,08,21,07,18,16.30
2011,08,21,07,19,16.30
2011,08,21,07,20,16.30
2011,08,21,07,21,16.30
2011,08,21,07,22,16.30
2011,08,21,07,23,16.30
2011,08,21,07,24,16.40
2011,08,21,07,25,16.40
2011,08,21,07,26,16.40
2011,08,21,07,27,16.40
2011,08,21,07,28,16.40
2011,08,21,07,29,16.40
2011,08,21,07,30,16.40
2011,08,21,07,31,16.40
2011,08,21,07,32,16.50
2011,08,21,07,33,16.50
2011,08,21,07,34,16.50
2011,08,21,07,35,16.50
2011,08,21,07,36,16.60
2011,08,21,07,37,16.60
2011,08,21,07,38,16.60
2011,08,21,07,39,16.60
2011,08,21,07,40,16.60
2011,08,21,07,41,16.60
2011,08,21,07,42,16.60
2011,08,21,07,43,16.60
2011,08,21,07,44,16.70
2011,08,21,07,45,16.70
2011,08,21,07,46,16.70
2011,08,21,07,47,16.70
2011,08,21,07,48,16.70
2011,08,21,07,49,16.70
2011,08,21,07,50,16.70
2011,08,21,07,51,16.70
2011,08,21,07,52,16.70
2011,08,21,07,53,16.70
2011,08,21,07,54,16.80
2011,08,21,07,55,16.80
2011,08,21,07,56,16.80
2011,08,21,07,57,16.80
2011,08,21,07,58,16.80
2011,08,21,07,59,16.80
2011,08,21,08,00,16.90
2011,08,21,08,01,16.90
2011,08,21,08,02,16.90
2011,08,21,08,03,16.90
2011,08,21,08,04,17.00
2011,08,21,08,05,17.00
2011,08,21,08,06,17.00
2011,08,21,08,07,17.00
2011,08,21,08,08,17.00
2011,08,21,08,09,17.10
2011,08,21,08,10,17.10
2011,08,21,08,11,17.10
2011,08,21,08,12,17.10
2011,08,21,08,13,17.10
2011,08,21,08,14,17.20
2011,08,21,08,15,17.20
2011,08,21,08,16,17.20
2011,08,21,08,17,17.20
2011,08,21,08,18,17.20
2011,08,21,08,19,17.30
2011,08,21,08,20,17.30
2011,08,21,08,21,17.30
2011,08,21,08,22,17.30
2011,08,21,08,23,17.30
2011,08,21,08,24,17.30
2011,08,21,08,25,17.40
2011,08,21,08,26,17.40
2011,08,21,08,27,17.40
2011,08,21,08,28,17.50
2011,08,21,08,29,17.60
2011,08,21,08,30,17.60
2011,08,21,08,31,17.60
2011,08,21,08,32,17.70
2011,08,21,08,33,17.70
2011,08,21,08,34,17.80
2011,08,21,08,35,17.80
2011,08,21,08,36,17.80
2011,08,21,08,37,17.90
2011,08,21,08,38,18.00
2011,08,21,08,39,18.00
2011,08,21,08,40,18.10
2011,08,21,08,41,18.20
2011,08,21,08,42,18.20
2011,08,21,08,43,18.20
2011,08,21,08,44,18.30
2011,08,21,08,45,18.30
2011,08,21,08,46,18.30
2011,08,21,08,47,18.30
2011,08,21,08,48,18.30
2011,08,21,08,49,18.40
2011,08,21,08,50,18.40
2011,08,21,08,51,18.40
2011,08,21,08,52,18.40
2011,08,21,08,53,18.40
2011,08,21,08,54,18.50
2011,08,21,08,55,18.50
2011,08,21,08,56,18.60
2011,08,21,08,57,18.60
2011,08,21,08,58,18.60
2011,08,21,08,59,18.60
2011,08,21,09,00,18.60
2011,08,21,09,01,18.60
2011,08,21,09,02,18.60
2011,08,21,09,03,18.60
2011,08,21,09,04,18.50
2011,08,21,09,05,18.50
2011,08,21,09,06,18.40
2011,08,21,09,07,18.40
2011,08,21,09,08,18.40
2011,08,21,09,09,18.40
2011,08,21,09,10,18.40
2011,08,21,09,11,18.40
2011,08,21,09,12,18.40
2011,08,21,09,13,18.40
2011,08,21,09,14,18.40
2011,08,21,09,15,18.40
2011,08,21,09,16,18.40
2011,08,21,09,17,18.40
2011,08,21,09,18,18.40
2011,08,21,09,19,18.40
2011,08,21,09,20,18.30
2011,08,21,09,21,18.40
2011,08,21,09,22,18.40
2011,08,21,09,23,18.40
2011,08,21,09,24,18.50
2011,08,21,09,25,18.50
2011,08,21,09,26,18.50
2011,08,21,09,27,18.50
2011,08,21,09,28,18.40
2011,08,21,09,29,18.30
2011,08,21,09,30,18.20
2011,08,21,09,31,18.10
2011,08,21,09,32,18.00
2011,08,21,09,33,18.00
2011,08,21,09,34,17.90
2011,08,21,09,35,18.00
2011,08,21,09,36,18.10
2011,08,21,09,37,18.10
2011,08,21,09,38,18.20
2011,08,21,09,39,18.20
2011,08,21,09,40,18.20
2011,08,21,09,41,18.20
2011,08,21,09,42,18.20
2011,08,21,09,43,18.10
2011,08,21,09,44,17.90
2011,08,21,09,45,17.70
2011,08,21,09,46,17.50
2011,08,21,09,47,17.40
2011,08,21,09,48,17.10
2011,08,21,09,49,17.00
2011,08,21,09,50,16.70
2011,08,21,09,51,16.50
2011,08,21,09,52,16.20
2011,08,21,09,53,16.00
2011,08,21,09,54,15.90
2011,08,21,09,55,15.70
2011,08,21,09,56,15.60
2011,08,21,09,57,15.60
2011,08,21,09,58,15.50
2011,08,21,09,59,15.50
2011,08,21,10,00,15.50
2011,08,21,10,01,15.50
2011,08,21,10,02,15.40
2011,08,21,10,03,15.40
2011,08,21,10,04,15.40
2011,08,21,10,05,15.40
2011,08,21,10,06,15.40
2011,08,21,10,07,15.40
2011,08,21,10,08,15.40
2011,08,21,10,09,15.40
2011,08,21,10,10,15.40
2011,08,21,10,11,15.40
2011,08,21,10,12,15.50
2011,08,21,10,13,15.50
2011,08,21,10,14,15.60
2011,08,21,10,15,15.60
2011,08,21,10,16,15.60
2011,08,21,10,17,15.70
2011,08,21,10,18,15.70
2011,08,21,10,19,15.70
2011,08,21,10,20,15.80
2011,08,21,10,21,15.90
2011,08,21,10,22,16.00
2011,08,21,10,23,16.00
2011,08,21,10,24,16.20
2011,08,21,10,25,16.30
2011,08,21,10,26,16.40
2011,08,21,10,27,16.60
2011,08,21,10,28,16.70
2011,08,21,10,29,16.80
2011,08,21,10,30,17.00
2011,08,21,10,31,17.10
2011,08,21,10,32,17.20
2011,08,21,10,33,17.20
2011,08,21,10,34,17.20
2011,08,21,10,35,17.30
2011,08,21,10,36,17.30
2011,08,21,10,37,17.30
2011,08,21,10,38,17.30
2011,08,21,10,39,17.30
2011,08,21,10,40,17.30
2011,08,21,10,41,17.30
2011,08,21,10,42,17.40
2011,08,21,10,43,17.40
2011,08,21,10,44,17.40
2011,08,21,10,45,17.50
2011,08,21,10,46,17.50
2011,08,21,10,47,17.60
2011,08,21,10,48,17.60
2011,08,21,10,49,17.60
2011,08,21,10,50,17.70
2011,08,21,10,51,17.70
2011,08,21,10,52,17.70
2011,08,21,10,53,17.70
2011,08,21,10,54,17.70
2011,08,21,10,55,17.70
2011,08,21,10,56,17.80
2011,08,21,10,57,17.80
2011,08,21,10,58,17.90
2011,08,21,10,59,18.00
2011,08,21,11,00,18.10
2011,08,21,11,01,18.20
2011,08,21,11,02,18.40
2011,08,21,11,03,18.50
2011,08,21,11,04,18.70
2011,08,21,11,05,18.80
2011,08,21,11,06,18.80
2011,08,21,11,07,18.80
2011,08,21,11,08,18.90
2011,08,21,11,09,18.90
2011,08,21,11,10,19.00
2011,08,21,11,11,19.00
2011,08,21,11,12,19.10
2011,08,21,11,13,19.10
2011,08,21,11,14,19.10
2011,08,21,11,15,19.10
2011,08,21,11,16,19.00
2011,08,21,11,17,19.10
2011,08,21,11,18,19.10
2011,08,21,11,19,19.10
2011,08,21,11,20,19.20
2011,08,21,11,21,19.30
2011,08,21,11,22,19.40
2011,08,21,11,23,19.60
2011,08,21,11,24,19.70
2011,08,21,11,25,19.90
2011,08,21,11,26,20.10
2011,08,21,11,27,20.20
2011,08,21,11,28,20.20
2011,08,21,11,29,20.20
2011,08,21,11,30,20.20
2011,08,21,11,31,20.20
2011,08,21,11,32,20.10
2011,08,21,11,33,20.20
2011,08,21,11,34,20.20
2011,08,21,11,35,20.20
2011,08,21,11,36,20.30
2011,08,21,11,37,20.30
2011,08,21,11,38,20.40
2011,08,21,11,39,20.40
2011,08,21,11,40,20.40
2011,08,21,11,41,20.30
2011,08,21,11,42,20.30
2011,08,21,11,43,20.20
2011,08,21,11,44,20.20
2011,08,21,11,45,20.10
2011,08,21,11,46,20.10
2011,08,21,11,47,20.10
2011,08,21,11,48,20.10
2011,08,21,11,49,20.20
2011,08,21,11,50,20.20
2011,08,21,11,51,20.20
2011,08,21,11,52,20.20
2011,08,21,11,53,20.30
2011,08,21,11,54,20.40
2011,08,21,11,55,20.40
2011,08,21,11,56,20.50
2011,08,21,11,57,20.60
2011,08,21,11,58,20.70
2011,08,21,11,59,20.80
2011,08,21,12,00,20.80
2011,08,21,12,01,20.90
2011,08,21,12,02,20.90
2011,08,21,12,03,21.00
2011,08,21,12,04,21.10
2011,08,21,12,05,21.20
2011,08,21,12,06,21.20
2011,08,21,12,07,21.20
2011,08,21,12,08,21.20
2011,08,21,12,09,21.30
2011,08,21,12,10,21.30
2011,08,21,12,11,21.30
2011,08,21,12,12,21.40
2011,08,21,12,13,21.40
2011,08,21,12,14,21.50
2011,08,21,12,15,21.60
2011,08,21,12,16,21.60
2011,08,21,12,17,21.70
2011,08,21,12,18,21.80
2011,08,21,12,19,21.90
2011,08,21,12,20,22.00
2011,08,21,12,21,22.10
2011,08,21,12,22,22.20
2011,08,21,12,23,22.30
2011,08,21,12,24,22.30
2011,08,21,12,25,22.40
2011,08,21,12,26,22.40
2011,08,21,12,27,22.50
2011,08,21,12,28,22.50
2011,08,21,12,29,22.50
2011,08,21,12,30,22.50
2011,08,21,12,31,22.50
2011,08,21,12,32,22.50
2011,08,21,12,33,22.40
2011,08,21,12,34,22.40
2011,08,21,12,35,22.30
2011,08,21,12,36,22.30
2011,08,21,12,37,22.20
2011,08,21,12,38,22.10
2011,08,21,12,39,22.10
2011,08,21,12,40,22.10
2011,08,21,12,41,22.10
2011,08,21,12,42,22.10
2011,08,21,12,43,22.10
2011,08,21,12,44,22.10
2011,08,21,12,45,22.10
2011,08,21,12,46,22.10
2011,08,21,12,47,22.20
2011,08,21,12,48,22.20
2011,08,21,12,49,22.20
2011,08,21,12,50,22.20
2011,08,21,12,51,22.30
2011,08,21,12,52,22.30
2011,08,21,12,53,22.50
2011,08,21,12,54,22.50
2011,08,21,12,55,22.60
2011,08,21,12,56,22.70
2011,08,21,12,57,22.70
2011,08,21,12,58,22.70
2011,08,21,12,59,22.70
2011,08,21,13,00,22.70
2011,08,21,13,01,22.80
2011,08,21,13,02,22.80
2011,08,21,13,03,22.80
2011,08,21,13,04,22.90
2011,08,21,13,05,22.90
2011,08,21,13,06,23.00
2011,08,21,13,07,23.10
2011,08,21,13,08,23.10
2011,08,21,13,09,23.10
2011,08,21,13,10,23.10
2011,08,21,13,11,23.20
2011,08,21,13,12,23.20
2011,08,21,13,13,23.20
2011,08,21,13,14,23.20
2011,08,21,13,15,23.20
2011,08,21,13,16,23.20
2011,08,21,13,17,23.20
2011,08,21,13,18,23.20
2011,08,21,13,19,23.20
2011,08,21,13,20,23.30
2011,08,21,13,21,23.40
2011,08,21,13,22,23.50
2011,08,21,13,23,23.50
2011,08,21,13,24,23.60
2011,08,21,13,25,23.60
2011,08,21,13,26,23.70
2011,08,21,13,27,23.80
2011,08,21,13,28,23.80
2011,08,21,13,29,23.80
2011,08,21,13,30,23.80
2011,08,21,13,31,23.70
2011,08,21,13,32,23.60
2011,08,21,13,33,23.50
2011,08,21,13,34,23.40
2011,08,21,13,35,23.40
2011,08,21,13,36,23.50
2011,08,21,13,37,23.50
2011,08,21,13,38,23.60
2011,08,21,13,39,23.60
2011,08,21,13,40,23.60
2011,08,21,13,41,23.60
2011,08,21,13,42,23.60
2011,08,21,13,43,23.60
2011,08,21,13,44,23.70
2011,08,21,13,45,23.70
2011,08,21,13,46,23.70
2011,08,21,13,47,23.80
2011,08,21,13,48,23.90
2011,08,21,13,49,23.90
2011,08,21,13,50,23.90
2011,08,21,13,51,24.00
2011,08,21,13,52,24.10
2011,08,21,13,53,24.20
2011,08,21,13,54,24.30
2011,08,21,13,55,24.40
2011,08,21,13,56,24.50
2011,08,21,13,57,24.70
2011,08,21,13,58,24.80
2011,08,21,13,59,24.90
2011,08,21,14,00,24.90
2011,08,21,14,01,24.90
2011,08,21,14,02,24.80
2011,08,21,14,03,24.80
2011,08,21,14,04,24.70
2011,08,21,14,05,24.60
2011,08,21,14,06,24.60
2011,08,21,14,07,24.50
2011,08,21,14,08,24.40
2011,08,21,14,09,24.40
2011,08,21,14,10,24.30
2011,08,21,14,11,24.30
2011,08,21,14,12,24.20
2011,08,21,14,13,24.10
2011,08,21,14,14,24.10
2011,08,21,14,15,24.10
2011,08,21,14,16,24.10
2011,08,21,14,17,24.10
2011,08,21,14,18,24.10
2011,08,21,14,19,24.10
2011,08,21,14,20,24.10
2011,08,21,14,21,24.10
2011,08,21,14,22,24.10
2011,08,21,14,23,24.20
2011,08,21,14,24,24.20
2011,08,21,14,25,24.20
2011,08,21,14,26,24.20
2011,08,21,14,27,24.20
2011,08,21,14,28,24.20
2011,08,21,14,29,24.20
2011,08,21,14,30,24.20
2011,08,21,14,31,24.10
2011,08,21,14,32,24.00
2011,08,21,14,33,23.90
2011,08,21,14,34,23.80
2011,08,21,14,35,23.80
2011,08,21,14,36,23.80
2011,08,21,14,37,23.70
2011,08,21,14,38,23.70
2011,08,21,14,39,23.70
2011,08,21,14,40,23.70
2011,08,21,14,41,23.70
2011,08,21,14,42,23.70
2011,08,21,14,43,23.60
2011,08,21,14,44,23.50
2011,08,21,14,45,23.40
2011,08,21,14,46,23.40
2011,08,21,14,47,23.30
2011,08,21,14,48,23.20
2011,08,21,14,49,23.00
2011,08,21,14,50,22.80
2011,08,21,14,51,22.70
2011,08,21,14,52,22.60
2011,08,21,14,53,22.40
2011,08,21,14,54,22.30
2011,08,21,14,55,22.30
2011,08,21,14,56,22.30
2011,08,21,14,57,22.20
2011,08,21,14,58,22.10
2011,08,21,14,59,22.10
2011,08,21,15,00,22.10
2011,08,21,15,01,22.00
2011,08,21,15,02,22.00
2011,08,21,15,03,21.90
2011,08,21,15,04,21.90
2011,08,21,15,05,21.90
2011,08,21,15,06,21.90
2011,08,21,15,07,21.90
2011,08,21,15,08,21.90
2011,08,21,15,09,21.80
2011,08,21,15,10,21.80
2011,08,21,15,11,21.70
2011,08,21,15,12,21.70
2011,08,21,15,13,21.80
2011,08,21,15,14,21.90
2011,08,21,15,15,21.90
2011,08,21,15,16,21.90
2011,08,21,15,17,22.00
2011,08,21,15,18,22.00
2011,08,21,15,19,22.00
2011,08,21,15,20,21.90
2011,08,21,15,21,21.90
2011,08,21,15,22,21.90
2011,08,21,15,23,21.90
2011,08,21,15,24,21.90
2011,08,21,15,25,21.90
2011,08,21,15,26,21.90
2011,08,21,15,27,21.90
2011,08,21,15,28,22.00
2011,08,21,15,29,22.10
2011,08,21,15,30,22.10
2011,08,21,15,31,22.20
2011,08,21,15,32,22.20
2011,08,21,15,33,22.20
2011,08,21,15,34,22.30
2011,08,21,15,35,22.30
2011,08,21,15,36,22.30
2011,08,21,15,37,22.30
2011,08,21,15,38,22.30
2011,08,21,15,39,22.30
2011,08,21,15,40,22.20
2011,08,21,15,41,22.20
2011,08,21,15,42,22.10
2011,08,21,15,43,22.10
2011,08,21,15,44,22.10
2011,08,21,15,45,22.20
2011,08,21,15,46,22.20
2011,08,21,15,47,22.20
2011,08,21,15,48,22.30
2011,08,21,15,49,22.30
2011,08,21,15,50,22.40
2011,08,21,15,51,22.40
2011,08,21,15,52,22.50
2011,08,21,15,53,22.50
2011,08,21,15,54,22.60
2011,08,21,15,55,22.60
2011,08,21,15,56,22.70
2011,08,21,15,57,22.70
2011,08,21,15,58,22.80
2011,08,21,15,59,22.80
2011,08,21,16,00,22.90
2011,08,21,16,01,22.90
2011,08,21,16,02,22.90
2011,08,21,16,03,22.90
2011,08,21,16,04,23.00
2011,08,21,16,05,23.00
2011,08,21,16,06,23.00
2011,08,21,16,07,23.00
2011,08,21,16,08,23.00
2011,08,21,16,09,23.00
2011,08,21,16,10,23.00
2011,08,21,16,11,23.10
2011,08,21,16,12,23.10
2011,08,21,16,13,23.20
2011,08,21,16,14,23.20
2011,08,21,16,15,23.20
2011,08,21,16,16,23.20
2011,08,21,16,17,23.20
2011,08,21,16,18,23.30
2011,08,21,16,19,23.20
2011,08,21,16,20,23.20
2011,08,21,16,21,23.20
2011,08,21,16,22,23.20
2011,08,21,16,23,23.10
2011,08,21,16,24,23.10
2011,08,21,16,25,23.00
2011,08,21,16,26,22.80
2011,08,21,16,27,22.60
2011,08,21,16,28,22.50
2011,08,21,16,29,22.30
2011,08,21,16,30,22.30
2011,08,21,16,31,22.20
2011,08,21,16,32,22.20
2011,08,21,16,33,22.30
2011,08,21,16,34,22.30
2011,08,21,16,35,22.30
2011,08,21,16,36,22.30
2011,08,21,16,37,22.40
2011,08,21,16,38,22.40
2011,08,21,16,39,22.50
2011,08,21,16,40,22.60
2011,08,21,16,41,22.60
2011,08,21,16,42,22.70
2011,08,21,16,43,22.80
2011,08,21,16,44,22.90
2011,08,21,16,45,22.90
2011,08,21,16,46,22.90
2011,08,21,16,47,22.90
2011,08,21,16,48,22.80
2011,08,21,16,49,22.80
2011,08,21,16,50,22.70
2011,08,21,16,51,22.50
2011,08,21,16,52,22.40
2011,08,21,16,53,22.20
2011,08,21,16,54,22.10
2011,08,21,16,55,22.00
2011,08,21,16,56,21.80
2011,08,21,16,57,21.70
2011,08,21,16,58,21.70
2011,08,21,16,59,21.80
2011,08,21,17,00,21.80
2011,08,21,17,01,21.80
2011,08,21,17,02,21.80
2011,08,21,17,03,21.80
2011,08,21,17,04,21.90
2011,08,21,17,05,21.90
2011,08,21,17,06,22.00
2011,08,21,17,07,22.00
2011,08,21,17,08,22.10
2011,08,21,17,09,22.10
2011,08,21,17,10,22.20
2011,08,21,17,11,22.30
2011,08,21,17,12,22.40
2011,08,21,17,13,22.40
2011,08,21,17,14,22.50
2011,08,21,17,15,22.50
2011,08,21,17,16,22.60
2011,08,21,17,17,22.70
2011,08,21,17,18,22.70
2011,08,21,17,19,22.80